When you browse on this site, cookies collect data to enhance your experience and personalize the content and advertising you see.
Visit our Privacy Policy to learn more. By continuing to use the site, you agree to this use of cookies and data.
  • Em Portugal
  • Lista de países
  • Para 7 dias
  • Temperatura da água
  • Mapas de satélite
  • Mapa do tempo
  • Widgets de tempo
  • user-avatar
    Iniciar Sessão

    Previsão horária em Brod

    Hoje, 20 Abril, Sábado

    Tempo Temperatura Precipitação Vento Pressão Humidade
    00:00 +8°C° 0 mm 1 m/s 758 mmHg 53%
    01:00 +7°C° 0 mm 1 m/s 758 mmHg 54%
    02:00 +5°C° 0 mm 2 m/s 758 mmHg 56%
    03:00 +5°C° 0 mm 2 m/s 758 mmHg 57%
    04:00 +5°C° 0 mm 2 m/s 757 mmHg 58%
    05:00 +5°C° 0 mm 2 m/s 757 mmHg 60%
    06:00 +6°C° 0 mm 2 m/s 757 mmHg 57%
    07:00 +8°C° 0 mm 2 m/s 757 mmHg 54%
    08:00 +10°C° 0 mm 2 m/s 757 mmHg 51%
    09:00 +11°C° 0 mm 3 m/s 756 mmHg 47%
    10:00 +13°C° 0 mm 3 m/s 756 mmHg 43%
    11:00 +14°C° 0 mm 3 m/s 756 mmHg 39%
    12:00 +16°C° 0 mm 3 m/s 756 mmHg 37%
    13:00 +16°C° 0 mm 3 m/s 755 mmHg 35%
    14:00 +17°C° 0 mm 3 m/s 755 mmHg 33%
    15:00 +16°C° 0 mm 2 m/s 755 mmHg 36%
    16:00 +16°C° 0 mm 2 m/s 755 mmHg 39%
    17:00 +15°C° 0 mm 1 m/s 754 mmHg 41%
    18:00 +14°C° 0 mm 1 m/s 754 mmHg 47%
    19:00 +13°C° 0 mm 1 m/s 754 mmHg 53%
    20:00 +11°C° 0 mm 1 m/s 754 mmHg 58%
    21:00 +11°C° 0.3 mm 1 m/s 754 mmHg 64%
    22:00 +10°C° 0.3 mm 1 m/s 754 mmHg 69%
    23:00 +10°C° 0.3 mm 1 m/s 754 mmHg 74%

    Amanhã, 21 Abril, Domingo

    Tempo Temperatura Precipitação Vento Pressão Humidade
    00:00 +10°C° 0.1 mm 1 m/s 754 mmHg 75%
    01:00 +9°C° 0.1 mm 1 m/s 754 mmHg 75%
    02:00 +9°C° 0.1 mm 1 m/s 754 mmHg 76%
    03:00 +9°C° 0.1 mm 1 m/s 754 mmHg 77%
    04:00 +7°C° 0.1 mm 2 m/s 754 mmHg 79%
    05:00 +7°C° 0.1 mm 2 m/s 753 mmHg 80%
    06:00 +8°C° 0.3 mm 2 m/s 753 mmHg 79%
    07:00 +9°C° 0.3 mm 3 m/s 754 mmHg 77%
    08:00 +10°C° 0.3 mm 3 m/s 754 mmHg 75%
    09:00 +11°C° 0.5 mm 4 m/s 754 mmHg 66%
    10:00 +13°C° 0.5 mm 5 m/s 754 mmHg 57%
    11:00 +14°C° 0.5 mm 6 m/s 754 mmHg 48%
    12:00 +15°C° 0 mm 6 m/s 754 mmHg 45%
    13:00 +15°C° 0 mm 6 m/s 754 mmHg 41%
    14:00 +16°C° 0 mm 6 m/s 754 mmHg 38%
    15:00 +15°C° 0 mm 6 m/s 754 mmHg 40%
    16:00 +15°C° 0 mm 6 m/s 754 mmHg 43%
    17:00 +14°C° 0 mm 6 m/s 754 mmHg 45%
    18:00 +13°C° 0 mm 5 m/s 754 mmHg 48%
    19:00 +10°C° 0 mm 5 m/s 755 mmHg 51%
    20:00 +10°C° 0 mm 4 m/s 755 mmHg 55%
    21:00 +8°C° 0 mm 4 m/s 756 mmHg 56%
    22:00 +7°C° 0 mm 4 m/s 756 mmHg 57%
    23:00 +7°C° 0 mm 4 m/s 756 mmHg 59%

    Depois de amanhã, 22 Abril, Segunda-feira

    Tempo Temperatura Precipitação Vento Pressão Humidade
    00:00 +7°C° 0 mm 3 m/s 757 mmHg 60%
    01:00 +7°C° 0 mm 3 m/s 757 mmHg 61%
    02:00 +5°C° 0 mm 3 m/s 757 mmHg 62%
    03:00 +5°C° 0 mm 3 m/s 757 mmHg 64%
    04:00 +5°C° 0 mm 3 m/s 758 mmHg 65%
    05:00 +6°C° 0 mm 2 m/s 758 mmHg 66%
    06:00 +7°C° 0 mm 3 m/s 758 mmHg 62%
    07:00 +9°C° 0 mm 3 m/s 758 mmHg 58%
    08:00 +11°C° 0 mm 3 m/s 759 mmHg 54%
    09:00 +12°C° 0 mm 3 m/s 759 mmHg 49%
    10:00 +13°C° 0 mm 3 m/s 759 mmHg 43%
    11:00 +14°C° 0 mm 4 m/s 759 mmHg 37%
    12:00 +14°C° 0 mm 4 m/s 759 mmHg 37%
    13:00 +14°C° 0 mm 4 m/s 759 mmHg 37%
    14:00 +14°C° 0 mm 4 m/s 759 mmHg 37%
    15:00 +14°C° 0 mm 3 m/s 759 mmHg 37%
    16:00 +14°C° 0 mm 3 m/s 759 mmHg 38%
    17:00 +14°C° 0 mm 3 m/s 759 mmHg 39%
    18:00 +13°C° 0 mm 2 m/s 759 mmHg 43%
    19:00 +12°C° 0 mm 2 m/s 759 mmHg 47%
    20:00 +9°C° 0 mm 2 m/s 759 mmHg 51%
    21:00 +10°C° 0 mm 1 m/s 759 mmHg 52%
    22:00 +9°C° 0 mm 1 m/s 760 mmHg 53%
    23:00 +9°C° 0 mm 1 m/s 760 mmHg 54%

    23 Abril, Terça-feira

    Tempo Temperatura Precipitação Vento Pressão Humidade
    00:00 +9°C° 0 mm 1 m/s 760 mmHg 53%
    01:00 +10°C° 0 mm 1 m/s 760 mmHg 53%
    02:00 +10°C° 0 mm 1 m/s 760 mmHg 52%
    03:00 +9°C° 0 mm 1 m/s 761 mmHg 55%
    04:00 +8°C° 0 mm 1 m/s 761 mmHg 58%
    05:00 +7°C° 0 mm 2 m/s 761 mmHg 60%
    06:00 +8°C° 0 mm 2 m/s 761 mmHg 57%
    07:00 +10°C° 0 mm 2 m/s 761 mmHg 54%
    08:00 +13°C° 0 mm 2 m/s 761 mmHg 50%
    09:00 +14°C° 0 mm 2 m/s 761 mmHg 45%
    10:00 +14°C° 0 mm 3 m/s 761 mmHg 39%
    11:00 +16°C° 0 mm 3 m/s 761 mmHg 34%
    12:00 +17°C° 0 mm 3 m/s 761 mmHg 33%
    13:00 +17°C° 0 mm 3 m/s 761 mmHg 33%
    14:00 +17°C° 0 mm 3 m/s 760 mmHg 32%
    15:00 +17°C° 0 mm 3 m/s 760 mmHg 34%
    16:00 +17°C° 0 mm 3 m/s 760 mmHg 36%
    17:00 +17°C° 0 mm 3 m/s 760 mmHg 37%
    18:00 +14°C° 0 mm 3 m/s 760 mmHg 42%
    19:00 +13°C° 0 mm 3 m/s 760 mmHg 46%
    20:00 +12°C° 0 mm 3 m/s 760 mmHg 50%
    21:00 +12°C° 0 mm 2 m/s 760 mmHg 53%
    22:00 +10°C° 0 mm 2 m/s 760 mmHg 57%
    23:00 +9°C° 0 mm 2 m/s 760 mmHg 60%

    24 Abril, Quarta-feira

    Tempo Temperatura Precipitação Vento Pressão Humidade
    00:00 +8°C° 0 mm 2 m/s 760 mmHg 61%
    01:00 +8°C° 0 mm 2 m/s 760 mmHg 63%
    02:00 +8°C° 0 mm 2 m/s 761 mmHg 65%
    03:00 +7°C° 0 mm 2 m/s 761 mmHg 66%
    04:00 +7°C° 0 mm 2 m/s 761 mmHg 68%
    05:00 +7°C° 0 mm 2 m/s 761 mmHg 69%
    06:00 +8°C° 0 mm 3 m/s 761 mmHg 65%
    07:00 +10°C° 0 mm 3 m/s 761 mmHg 60%
    08:00 +12°C° 0 mm 3 m/s 761 mmHg 55%
    09:00 +13°C° 0 mm 4 m/s 761 mmHg 51%
    10:00 +15°C° 0 mm 5 m/s 760 mmHg 46%
    11:00 +16°C° 0 mm 5 m/s 760 mmHg 41%
    12:00 +17°C° 0 mm 5 m/s 760 mmHg 41%
    13:00 +17°C° 0 mm 5 m/s 760 mmHg 40%
    14:00 +19°C° 0 mm 5 m/s 759 mmHg 40%
    15:00 +17°C° 0 mm 5 m/s 759 mmHg 41%
    16:00 +17°C° 0 mm 5 m/s 759 mmHg 42%
    17:00 +17°C° 0 mm 5 m/s 758 mmHg 43%
    18:00 +15°C° 0 mm 4 m/s 758 mmHg 49%
    19:00 +13°C° 0 mm 4 m/s 758 mmHg 54%
    20:00 +12°C° 0 mm 3 m/s 759 mmHg 60%
    21:00 +11°C° 0 mm 3 m/s 759 mmHg 62%
    22:00 +10°C° 0 mm 3 m/s 759 mmHg 63%
    23:00 +10°C° 0 mm 3 m/s 759 mmHg 65%

    25 Abril, Quinta-feira

    Tempo Temperatura Precipitação Vento Pressão Humidade
    00:00 +9°C° 0 mm 3 m/s 759 mmHg 66%
    01:00 +9°C° 0 mm 3 m/s 759 mmHg 67%
    02:00 +9°C° 0 mm 3 m/s 759 mmHg 68%
    03:00 +8°C° 0 mm 3 m/s 759 mmHg 69%
    04:00 +8°C° 0 mm 3 m/s 759 mmHg 70%
    05:00 +8°C° 0 mm 3 m/s 759 mmHg 70%
    06:00 +8°C° 0 mm 4 m/s 759 mmHg 66%
    07:00 +11°C° 0 mm 4 m/s 759 mmHg 61%
    08:00 +13°C° 0 mm 5 m/s 759 mmHg 56%
    09:00 +15°C° 0 mm 5 m/s 758 mmHg 51%
    10:00 +16°C° 0 mm 6 m/s 758 mmHg 46%
    11:00 +19°C° 0 mm 6 m/s 758 mmHg 41%
    12:00 +19°C° 0 mm 6 m/s 757 mmHg 40%
    13:00 +20°C° 0 mm 6 m/s 757 mmHg 39%
    14:00 +20°C° 0 mm 6 m/s 757 mmHg 38%
    15:00 +20°C° 0 mm 5 m/s 756 mmHg 39%
    16:00 +20°C° 0 mm 5 m/s 756 mmHg 40%
    17:00 +20°C° 0 mm 4 m/s 756 mmHg 41%
    18:00 +18°C° 0 mm 4 m/s 756 mmHg 47%
    19:00 +16°C° 0 mm 3 m/s 756 mmHg 53%
    20:00 +13°C° 0 mm 3 m/s 755 mmHg 59%
    21:00 +13°C° 0 mm 3 m/s 755 mmHg 61%
    22:00 +12°C° 0 mm 3 m/s 755 mmHg 63%
    23:00 +12°C° 0 mm 3 m/s 755 mmHg 65%
    Mostrar mais